Theta_e
317 312 311 308 300 298 296 298 303 303 303 307 310 310 311 312 308 302 328 334 338 341 343 344 344 344 344 344 346 345 343 341 340 341 344 346 346 346 346 345 347 346 345 343 341 339 340 339 338
311 311 309 302 295 292 294 298 301 303 308 312 311 311 310 311 320 324 328 337 340 341 343 342 342 345 343 346 346 344 343 341 339 341 342 344 346 347 346 345 346 344 343 341 338 339 338 337 336
312 310 305 297 293 292 294 297 302 306 309 307 310 314 313 314 323 326 332 338 341 341 343 342 342 345 344 345 346 344 342 340 340 340 339 339 339 342 344 344 344 343 341 340 337 338 336 335 335
307 310 304 295 294 297 297 300 304 306 306 309 312 311 317 322 325 329 337 338 339 340 342 342 343 345 343 345 344 343 342 341 341 341 339 338 338 338 340 342 343 341 338 337 336 337 336 334 333
306 306 298 294 295 297 297 301 304 303 303 307 308 310 314 323 331 334 336 337 335 338 342 343 342 344 344 344 343 343 342 341 343 341 341 340 341 339 338 339 339 338 335 335 337 336 335 333 332
302 303 296 295 295 297 300 303 303 302 303 308 310 311 315 327 329 332 334 335 336 337 341 343 337 339 342 342 343 342 342 342 342 342 340 338 339 341 337 338 339 336 334 335 335 335 334 333 331
299 300 297 295 295 296 302 302 301 301 304 306 312 308 316 324 330 333 332 334 336 337 339 339 341 338 335 338 339 340 341 341 341 341 341 339 339 339 338 337 335 334 332 333 333 333 332 331 330
299 299 293 293 294 295 300 301 302 303 303 311 315 306 312 321 330 331 331 332 333 333 335 338 339 340 339 339 332 334 337 337 336 334 334 332 332 333 333 330 334 333 332 331 331 331 331 329 328
302 294 292 295 294 296 298 299 300 302 307 306 311 312 316 328 330 329 328 327 328 329 332 336 337 338 337 337 332 331 331 332 329 328 324 324 330 331 331 329 332 333 331 329 328 328 327 327 326
297 293 294 297 297 295 297 299 299 300 303 304 310 317 324 327 327 325 323 323 324 325 328 332 335 337 336 335 333 335 334 334 330 328 326 325 325 328 330 327 327 329 329 329 328 326 322 321 321
298 294 297 297 298 298 297 296 298 299 298 302 306 314 321 324 326 324 324 325 324 326 327 329 332 334 336 334 332 333 332 330 328 326 325 325 324 325 328 328 326 325 319 322 321 321 321 321 321
295 297 297 298 298 297 296 297 296 299 301 302 307 318 322 323 324 325 325 326 325 325 326 328 331 331 333 333 334 333 332 328 327 326 325 324 323 322 322 323 322 322 321 321 321 321 320 320 319
295 295 296 297 297 297 297 296 296 297 299 302 314 320 321 323 324 326 327 328 328 325 325 327 330 330 330 331 332 333 331 330 327 326 325 324 323 322 321 321 321 321 320 319 320 320 319 319 319
297 295 294 295 296 296 296 295 295 298 305 311 315 317 320 322 324 325 325 326 327 327 326 328 329 330 329 330 330 330 330 331 328 326 326 325 324 322 321 320 320 319 319 319 319 319 319 319 318
295 293 292 292 294 294 296 294 295 297 304 309 313 314 317 321 324 324 326 326 327 327 327 327 328 329 328 329 329 329 329 329 329 328 326 326 325 323 322 321 320 320 319 318 318 317 317 317 317
292 292 288 291 293 293 295 291 297 297 300 304 310 312 314 316 321 324 326 327 328 328 327 328 328 328 328 328 329 329 329 328 328 329 329 326 326 325 322 322 321 321 319 318 318 317 316 316 315
289 286 286 289 293 292 293 293 296 296 298 299 306 310 313 314 317 319 322 325 326 328 328 328 328 327 327 328 328 328 329 328 329 329 330 330 328 326 323 320 321 319 318 318 317 317 315 315 315
286 285 285 287 290 290 290 292 292 293 295 297 298 307 309 312 316 320 320 322 325 328 328 329 329 329 328 329 328 328 328 328 329 330 330 331 330 327 324 323 321 319 317 315 313 316 314 314 314
286 287 286 287 289 290 289 291 293 292 291 292 294 296 303 309 315 316 319 321 323 325 327 327 327 328 328 327 326 326 327 328 329 329 330 331 331 328 325 325 322 320 318 318 315 313 312 312 310
286 285 285 286 288 289 287 289 291 291 292 293 293 294 295 298 301 305 311 316 320 323 325 326 326 327 328 329 329 329 328 329 329 330 330 330 330 329 327 325 323 321 319 316 315 312 311 311 309
284 284 283 285 286 286 285 286 289 291 291 292 293 294 295 297 299 299 299 302 310 318 322 324 325 327 328 329 328 325 326 326 327 327 328 328 330 329 327 326 324 322 320 318 316 314 313 314 309
283 286 286 285 284 282 284 280 285 289 289 290 293 293 295 296 295 297 296 295 296 301 314 322 324 326 327 328 326 326 326 324 326 328 328 327 327 328 328 327 326 324 321 320 318 317 315 313 311
286 286 285 284 282 281 280 279 282 283 286 288 291 293 296 298 296 295 294 295 295 296 302 312 320 323 325 326 327 326 325 326 326 324 324 325 325 326 325 326 326 324 321 321 320 315 314 313 314
286 285 283 281 280 277 279 280 280 282 287 289 291 293 293 292 292 293 295 295 297 299 302 310 316 318 321 324 326 324 324 324 321 321 322 322 323 323 324 323 324 324 322 321 319 319 317 317 315
284 283 277 276 275 276 277 277 283 286 286 287 288 290 291 293 291 294 296 298 299 300 302 304 312 313 317 322 323 324 324 324 322 322 322 322 322 322 324 324 324 324 323 322 320 318 317 315 315
283 284 278 273 273 276 278 277 283 287 287 288 288 288 292 293 293 295 296 298 300 301 303 304 304 304 304 305 308 309 312 321 323 324 324 323 324 324 326 324 323 324 323 321 319 317 317 315 314
283 281 284 277 269 274 277 280 285 286 285 285 287 288 290 292 293 294 295 297 298 300 302 303 303 303 305 306 306 306 305 303 303 309 320 323 324 321 321 321 321 321 319 319 318 317 314 312 311
286 287 281 279 271 270 275 277 280 282 284 285 286 287 290 291 293 294 295 296 296 297 299 301 302 302 303 304 309 309 310 309 309 307 311 314 315 317 317 319 317 318 316 316 315 312 310 309 306
283 282 281 282 279 274 271 277 281 283 284 284 286 287 289 291 292 293 294 295 295 295 297 298 300 301 301 303 306 307 306 307 308 309 309 310 309 310 311 311 310 308 307 309 307 306 305 303 301
283 284 283 281 275 276 277 279 284 285 285 284 285 287 287 291 292 293 293 293 293 294 295 296 297 297 297 298 303 302 303 302 302 301 301 302 301 301 301 301 300 299 300 301 301 299 299 297 295
Wind_Speed
5 2 3 5 5 5 1 2 1 4 3 2 4 4 6 2 3 2 1 5 11 10 9 11 10 9 11 12 14 14 13 14 14 13 13 15 16 17 17 17 15 17 19 19 17 18 18 18 18
4 2 5 3 6 3 3 2 5 4 3 6 5 2 3 2 2 6 8 6 12 10 9 11 10 8 11 12 15 14 13 14 15 13 12 12 16 16 17 18 15 17 18 18 17 17 17 17 18
0 4 4 5 3 4 4 4 5 2 5 2 4 3 2 4 2 9 3 12 11 9 10 10 11 10 11 14 14 12 14 14 13 14 14 13 12 11 16 15 17 16 16 16 15 16 16 16 16
4 5 4 4 3 3 4 4 4 6 2 1 3 5 1 2 6 5 13 14 12 9 9 10 11 11 12 11 13 14 13 13 14 13 14 14 13 12 11 16 15 17 16 14 14 15 15 15 15
5 3 4 3 2 2 3 3 7 4 3 2 1 4 2 2 5 12 14 13 13 10 9 10 11 10 11 10 11 12 11 7 14 11 13 14 12 13 13 12 14 16 13 13 14 13 14 14 14
4 3 4 2 3 2 3 5 7 3 3 3 4 4 3 1 8 11 12 12 10 11 8 8 11 9 10 11 10 9 9 10 13 13 13 12 11 13 13 12 14 15 12 13 13 13 13 13 13
6 4 3 4 3 4 3 6 6 6 5 4 7 5 0 3 5 10 10 11 10 9 9 6 9 10 7 11 9 9 8 10 11 11 9 11 11 12 12 9 10 12 11 12 12 11 12 12 13
5 5 4 4 3 5 4 5 4 5 5 3 2 5 4 5 10 9 9 10 8 8 9 6 8 9 7 7 8 8 9 8 10 10 9 9 9 10 10 8 9 10 10 10 11 11 10 11 12
4 5 3 4 6 4 4 6 2 1 6 2 4 4 0 14 14 10 10 9 8 7 8 7 6 8 8 7 6 7 7 7 8 8 9 8 5 6 7 7 9 10 9 9 9 10 9 9 9
5 4 9 6 4 3 4 4 9 5 3 3 2 3 8 16 15 15 13 13 12 11 9 9 8 8 8 6 6 6 6 4 4 5 5 4 5 4 5 6 7 8 8 9 8 8 7 5 3
4 5 5 5 5 3 2 1 4 8 3 8 9 7 13 16 14 14 12 13 13 12 8 9 9 9 8 7 5 3 3 4 3 5 4 4 4 4 3 3 3 3 4 3 4 4 3 4 2
5 4 5 3 3 5 4 4 5 6 7 3 6 11 15 18 17 16 15 13 12 12 12 11 10 8 8 6 5 6 4 3 4 4 5 4 3 3 3 2 3 2 2 2 2 2 3 3 3
4 4 4 2 2 3 7 5 4 7 2 3 9 13 16 16 16 14 14 10 12 12 11 11 10 9 7 8 6 4 4 4 4 4 5 4 4 3 2 2 2 1 1 1 0 1 2 2 2
7 6 4 2 3 2 5 2 1 3 5 5 10 13 15 15 15 15 14 15 11 10 10 10 11 10 8 8 9 5 6 4 5 4 5 6 4 4 3 3 2 2 2 1 1 1 1 1 1
5 5 2 2 3 3 4 3 9 1 4 6 7 7 10 14 15 16 16 16 14 11 10 12 12 11 10 10 9 7 6 6 4 5 6 7 6 5 5 3 3 3 2 3 2 1 1 2 2
5 5 4 3 4 2 5 6 5 6 8 8 8 7 8 11 12 12 11 13 11 10 12 11 9 11 11 10 8 7 7 7 7 6 7 9 8 8 7 5 5 5 4 3 3 2 2 2 3
4 5 5 3 6 4 4 6 2 3 6 7 6 7 9 7 8 11 11 12 11 12 11 11 11 12 11 10 8 9 10 8 8 7 8 11 10 8 6 5 4 4 3 4 3 2 3 2 3
6 5 4 6 3 2 2 8 1 2 5 7 7 7 7 8 17 13 12 11 11 11 11 11 10 11 12 8 7 6 6 7 8 8 8 10 8 10 9 6 5 5 4 3 3 4 3 3 3
6 5 5 3 2 4 7 8 8 5 4 6 8 7 10 14 11 6 9 10 9 11 11 12 12 12 9 7 7 6 8 7 7 8 9 9 8 9 9 6 6 5 6 6 5 3 4 3 2
5 6 5 0 1 4 3 11 7 5 7 8 9 8 12 6 7 6 7 8 12 12 13 12 13 13 12 9 7 6 6 6 6 7 8 10 9 9 8 8 7 7 5 5 6 6 3 3 4
4 7 6 3 1 2 2 8 7 5 4 4 7 7 7 14 14 9 9 12 8 11 12 12 13 13 13 13 5 2 2 1 4 4 5 8 9 9 10 10 7 7 6 6 7 7 8 5 3
6 7 6 6 4 4 2 6 5 7 10 6 11 10 14 13 9 7 9 8 10 12 7 10 11 13 13 13 10 12 11 10 8 7 5 5 8 9 8 7 8 8 7 9 9 7 6 5 6
6 7 7 3 4 2 1 2 8 2 6 9 13 13 16 15 9 10 9 8 8 6 8 7 9 11 10 11 12 9 10 8 5 3 6 6 6 7 7 9 9 9 6 8 8 7 10 8 6
11 8 8 6 4 3 6 5 6 6 11 9 10 12 10 5 7 5 1 3 5 4 4 4 7 6 6 9 11 12 13 10 5 4 5 5 4 5 7 8 9 9 8 9 9 9 8 8 7
4 7 4 2 2 6 1 1 8 9 10 6 4 5 3 4 4 3 3 3 4 5 5 4 5 5 5 7 8 9 9 8 9 8 6 6 5 4 8 9 8 7 9 8 6 7 8 8 8
7 9 8 8 5 3 1 8 9 13 5 7 7 4 3 4 4 5 5 4 4 5 5 5 5 5 4 2 2 1 2 2 4 6 6 6 6 6 7 6 6 8 7 6 6 5 6 6 7
6 6 8 8 2 3 6 7 12 7 9 7 7 5 6 6 5 6 6 5 5 4 4 5 5 5 4 3 2 3 2 3 4 6 3 4 4 3 3 4 5 5 5 5 6 5 5 5 4
11 12 4 2 5 4 4 5 7 2 2 3 5 8 7 6 7 6 5 6 4 4 4 5 5 5 3 3 2 1 1 0 2 4 4 3 1 1 1 4 4 4 3 4 4 3 3 4 2
5 7 3 7 5 6 1 7 6 4 4 4 7 6 8 7 7 7 5 4 3 3 4 4 5 5 4 3 2 3 3 3 3 2 2 1 3 3 2 2 3 3 3 3 4 4 5 6 5
2 9 7 8 6 0 3 7 1 4 6 7 8 7 5 6 7 6 6 6 5 4 4 4 3 4 3 2 3 3 4 4 5 5 5 4 5 5 5 6 6 6 6 6 6 7 7 8 7
Wind_Direction
347 331 89 41 61 64 127 209 261 133 153 176 120 145 174 81 161 154 53 161 141 138 137 120 111 118 105 108 110 102 95 93 91 93 86 94 101 99 93 83 76 79 79 78 76 72 70 67 66
342 318 48 72 86 89 253 257 185 184 126 130 91 50 68 102 68 116 123 170 144 138 124 121 118 116 110 102 109 102 95 95 92 94 86 94 101 102 104 97 90 82 86 86 81 79 75 73 70
263 34 75 87 106 164 185 199 183 115 142 141 107 56 117 143 101 151 134 143 133 132 126 128 121 119 110 102 105 108 103 98 94 95 97 89 83 71 82 100 98 89 81 85 86 82 80 78 74
34 18 47 78 183 224 176 172 156 137 249 81 124 84 23 282 154 167 143 140 135 134 126 134 125 124 117 107 103 103 108 116 112 107 108 104 101 90 67 86 90 86 85 88 89 85 83 81 78
35 63 67 79 288 265 255 177 145 145 129 130 161 166 56 52 101 137 143 139 143 139 137 137 124 128 124 119 113 110 112 113 119 120 107 97 105 109 92 81 85 89 88 95 87 89 86 80 74
51 92 68 182 250 259 266 174 138 141 137 144 99 124 153 50 139 151 144 138 142 140 134 142 132 130 132 123 118 114 111 99 98 102 107 101 90 102 101 94 97 99 94 90 92 90 85 80 72
114 91 181 167 255 302 215 163 157 147 140 215 157 111 259 167 175 151 137 132 140 140 138 143 142 138 127 129 126 122 112 99 100 98 97 100 95 83 90 80 92 93 99 91 85 85 86 82 73
104 93 125 202 196 255 165 184 150 145 197 99 196 164 184 174 150 126 126 132 136 145 148 146 145 141 139 141 130 127 120 113 107 105 100 94 92 94 94 80 95 101 96 89 81 77 89 85 80
135 76 184 216 159 230 162 171 347 24 115 178 154 146 47 137 140 135 140 143 151 163 164 154 152 151 144 147 140 128 123 117 110 106 100 96 103 103 103 99 97 103 98 91 86 76 79 82 74
94 134 210 195 196 222 205 178 160 142 118 213 142 55 131 150 159 165 171 170 172 177 179 173 159 163 152 148 155 152 141 135 134 128 122 115 113 112 109 98 87 84 81 85 76 71 71 84 78
129 188 194 218 209 155 219 242 179 126 211 210 187 156 163 166 169 180 182 186 182 179 182 191 174 164 170 156 164 160 157 144 150 151 136 126 122 118 119 114 99 92 58 64 67 59 51 62 57
129 236 174 172 164 131 176 141 205 198 206 195 177 151 162 179 184 185 191 187 185 181 190 191 187 175 176 174 168 170 180 164 167 178 156 148 140 132 128 123 114 97 66 71 49 66 73 65 52
162 191 183 158 184 198 126 226 239 225 169 82 129 150 172 184 191 191 196 191 194 199 198 191 181 183 176 176 180 167 181 189 191 178 180 165 163 165 152 146 163 153 140 111 102 28 42 46 31
203 163 167 147 197 144 146 178 157 236 136 128 154 168 179 188 191 192 197 200 194 198 204 185 188 187 177 183 186 181 198 190 192 200 199 186 178 170 178 175 187 200 191 156 156 207 295 326 319
124 137 70 167 210 146 165 119 229 163 157 162 191 176 180 194 195 201 200 204 201 204 193 186 189 184 182 191 185 187 197 203 199 205 211 203 191 190 188 191 201 205 187 176 176 207 272 282 290
104 64 145 233 164 219 135 258 242 172 162 201 197 190 191 198 206 206 200 206 196 190 189 188 184 187 190 194 193 187 191 200 207 206 205 208 205 204 201 202 212 193 186 189 202 203 254 274 283
23 162 196 252 200 155 167 229 228 143 178 216 210 215 209 202 215 208 203 198 193 197 189 188 185 190 192 195 196 197 195 197 203 202 203 207 207 199 200 208 214 181 190 202 200 208 226 257 264
170 157 214 198 207 147 168 264 294 163 183 221 228 221 227 224 227 213 198 198 193 194 195 195 191 190 192 193 196 202 203 212 210 213 205 203 202 195 193 207 192 173 175 194 199 226 210 249 275
145 132 163 202 198 157 201 250 234 211 195 238 243 234 228 224 242 200 204 201 194 197 193 197 191 192 186 185 195 208 211 206 210 208 203 201 201 195 194 200 199 177 193 200 178 187 213 248 201
135 153 196 301 58 154 168 254 261 203 243 209 215 226 239 242 249 233 204 194 202 205 202 201 201 191 194 196 205 200 192 208 204 206 208 201 197 195 193 196 197 187 191 191 187 175 184 227 176
159 165 183 161 81 60 50 284 262 242 251 273 256 238 235 230 236 220 201 214 199 205 205 201 205 200 199 198 179 149 144 146 178 195 205 214 206 203 194 195 189 191 190 200 200 196 196 221 189
162 194 142 130 106 221 103 275 258 237 234 214 241 228 240 237 235 229 205 207 206 217 190 202 198 204 202 195 193 203 212 222 221 213 205 197 202 210 207 209 208 198 194 201 206 197 200 186 221
210 129 135 101 102 59 358 276 264 17 255 237 241 239 237 238 218 212 215 205 206 188 205 205 199 202 192 193 203 205 217 227 217 189 194 204 206 208 203 205 208 211 199 216 205 192 200 199 207
156 84 56 55 84 284 215 166 262 193 208 231 224 233 242 271 266 250 58 157 146 140 166 173 177 190 172 183 192 197 212 214 197 197 208 213 205 212 217 212 215 220 211 208 209 215 214 210 220
94 102 40 9 354 220 91 183 254 253 242 211 223 174 20 12 37 129 137 147 123 122 132 148 162 170 172 186 195 202 214 213 217 209 212 207 216 215 225 212 218 219 221 211 195 196 208 203 210
175 153 151 182 200 228 234 234 244 233 267 228 215 222 137 90 87 103 110 110 110 112 121 119 140 130 144 164 197 234 250 234 235 221 208 213 215 221 233 198 205 225 211 201 192 201 210 193 206
187 189 148 106 46 58 215 297 302 257 259 255 242 198 181 123 122 131 126 127 128 128 99 106 102 100 88 94 78 37 1 282 269 278 283 221 221 202 231 219 226 226 207 202 192 207 207 185 186
177 149 161 42 137 252 281 272 241 237 156 151 197 205 173 150 144 151 145 143 132 111 102 96 100 108 107 106 122 124 83 177 276 258 251 256 283 158 217 241 241 225 212 204 180 162 145 153 143
124 180 102 120 156 168 200 261 220 259 290 277 240 218 181 168 167 158 138 127 131 116 109 97 92 105 108 112 109 92 60 47 56 74 68 48 67 33 78 103 100 109 106 90 111 94 89 92 84
183 171 152 177 210 197 145 271 125 282 272 247 258 206 197 176 166 157 151 157 162 150 136 134 122 115 112 119 120 107 93 86 83 70 58 60 81 58 64 68 66 55 61 65 87 93 82 90 88